FENGYUN 1C DEB, 40696

Orbit data source: Space-Track

FENGYUN 1C DEB, 40696 is space debris in SSO originally from a launch on Mon, 10 May 1999 UTC launched from the Taiyaun Space Center, China (TSC). Fengyun 1C debris stems from the Chinese weather satellite Fengyun-1C, which was intentionally destroyed by a Chinese anti-satellite missile in 2007. This event dramatically increased the amount of space debris, with thousands of trackable fragments posing hazards to satellites and human spaceflight. The Fengyun 1C debris cloud has become a focal point in discussions about space sustainability and the need for international regulations to prevent the creation of new debris.

Loading next visibility...
Identifier
40696, 1999-025EXC
Orbit
SSO
Last TLE update
4 days ago
Origin
Manufacturer
Unknown
Mission
Spacecraft
Bus & Motor
Unknown
Mass
Unknown
Launch date (UTC)
1999-05-10 (26 years ago)
Launch vehicle
Unknown
Launch site
Taiyaun Space Center, China (TSC)
Object type
Payload
Rocket body
Debris
Shape & HBR
Unknown
Radar Cross Section
Small (<0.1 m²)

Expand to show TLE details & history

TLE from 4 days ago
0 FENGYUN 1C DEB
1 40696U 99025EXC 25180.22729589 -.00000142  00000-0 -70400-4 0  9994
2 40696  98.9408 171.4780 0081062  95.0508 265.9913 13.96640212533557
Epoch: 2025-06-29T05:27Z
TLE epoch observation values (Epoch: 2025-06-29T05:27:18.364Z)
Latitude
-0.00013°
Longitude
172.09702°
Altitude
912.933 km
Speed
7.393 km/s
True Right ascension
11h 25m 54s
True Declination
0° 00' 00"
Sunlit
Object was in daylight at epoch
Visualization orbit readout
Latitude
-68.56923°
Longitude
-27.45563°
Altitude
988.564 km
Speed
7.327 km/s
Apparent Right ascension
04h 28m 21s
Apparent Declination
-70° 32' 32"
Sunlit
Object is in full shadow
Visualization observer readout
Local Sidereal Time
18:41:26
Azimuth
161.446° S
Elevation
-54.948°
Doppler factor
1
Orbital elements
Apogee altitude
961.673 km
Perigee altitude
843.634 km
Semi-major axis
7,280.791 km
Eccentricity
0.00811
Inclination
98.9408°
RAAN
171.478°
Arg. of periapsis
95.0508°
True anomaly
Unknown
Mean anomaly
265.9913°
Eccentric anomaly
Unknown
Mean motion
3.49362 °/min
Orbital period
103.05 mins
BSTAR
-0.0000704
Loading maneuver chart data...
Loading SW <> Apogee altitude chart data...
Loading historical data...
Loading historical data...
Loading historical data...
Loading historical data...
Loading historical data...
Loading historical data...
Loading historical data...

FENGYUN 1C DEB Visibility forecast

Observer location: undefined°, undefined°

Span
Click to sort rows by Start time (UTC) header in descending order
Start Az.
Max El. time (UTC)
Max El. Az.
Max El.
End time (UTC)
End Az.
9 mins2025-07-03 11:29:41.048Z39.494° NE2025-07-03 11:33:41.048Z94.298° ESE27.502°2025-07-03 11:38:41.048Z158.169° S
7 mins2025-07-03 13:12:41.048Z341.256° N2025-07-03 13:15:41.048Z289.995° WNW29.256°2025-07-03 13:19:41.048Z234.408° WSW
9 mins2025-07-03 23:03:41.048Z148.904° SSE2025-07-03 23:07:41.048Z73.044° E41.792°2025-07-03 23:12:41.048Z353.646° N
5 mins2025-07-04 00:47:41.048Z241.424° WSW2025-07-04 00:49:41.048Z265.302° W15.504°2025-07-04 00:52:41.048Z300.701° NW
|